Regional Weather Roundup
Issued by NWS

Home | Current Version | Previous Version | Graphics & Text | Print | Product List | Glossary Off
Versions: 1 2 3 4 5 6 7 8 9 10 11 12 13 14 15 16 17 18 19 20 21 22 23 24 25 26 27 28 29 30 31 32 33 34 35 36 37 38 39 40 41 42 43 44 45 46 47 48 49 50

000
ASUS43 KBIS 262220
RWRND

NORTH DAKOTA REGIONAL WEATHER ROUNDUP
NATIONAL WEATHER SERVICE BISMARCK ND
500 PM CDT THU MAR 26 2015

NOTE: "FAIR" INDICATES FEW OR NO CLOUDS BELOW 12,000 FEET WITH NO
SIGNIFICANT WEATHER AND/OR OBSTRUCTIONS TO VISIBILITY.


NDZ001>003-009>011-017-262300-
NORTHWEST NORTH DAKOTA

CITY           SKY/WX    TMP DP  RH WIND       PRES   REMARKS
WILLISTON      MOSUNNY   44  24  45 S6        30.16F
MINOT          SUNNY     37  19  48 E5        30.22R
MINOT AFB      MOSUNNY   38  23  56 SE6       30.21S
$$

NDZ018>021-031>035-040>046-262300-
SOUTHWEST NORTH DAKOTA

CITY           SKY/WX    TMP DP  RH WIND       PRES   REMARKS
BISMARCK       PTSUNNY   40  21  46 VRB5      30.22S
DICKINSON      CLOUDY    38  30  73 SE8       30.15S
GARRISON         N/A     38  22  52 CALM      30.21R
HETTINGER ARPT PTSUNNY   38  29  70 E6        30.16F
$$

NDZ004>008-012>016-024-026-027-054-262300-
NORTHEAST NORTH DAKOTA

CITY           SKY/WX    TMP DP  RH WIND       PRES   REMARKS
GRAND FORKS    CLOUDY    32  16  51 N17       30.28S
GRND FRKS AFB  CLOUDY    30  14  51 NE16      30.27F WCI  19
DEVILS LAKE    CLOUDY    30  18  59 NE12      30.25S
$$

NDZ022-023-025-028>030-036>039-047>053-262300-
SOUTHEAST NORTH DAKOTA

CITY           SKY/WX    TMP DP  RH WIND       PRES   REMARKS
FARGO          SUNNY     35   9  33 N22G32    30.24R
JAMESTOWN      SUNNY     36  11  35 NE16G22   30.22S
$$



USA.gov is the U.S. government's official web portal to all federal, state and local government web resources and services.